Flag for Germany Weather past 2 weeks in Emmendingen, Baden-Württemberg, Germany

Now
75 °F

Passing clouds.


Feels Like: 76 °F
Forecast: 66 / 98 °F
Wind: 3 mph from North

Location: Lahr

Current Time: Jul 6, 2015 at 3:05:01 AM

Latest Report: Jul 6, 2015 at 2:00 AM


Visibility: 15 mi

Pressure: 30.10 "Hg

Humidity: 74%

Dew point: 66 °F

Location of EmmendingenLocation

Historic Weather in Emmendingen — Graph

°F

Emmendingen temperature yesterday

Maximum temperature yesterday: 100 °F (at 5:00 PM)
Minimum temperature yesterday: 70 °F (at 5:00 AM)
Average temperature yesterday: 85 °F

Past Weeks' High & Low Weather Summary

 TemperatureHumidityPressure
High100 °F (Jul 5, 5:00 PM)99% (Jun 24, 5:00 AM)30.22 "Hg (Jun 24, 5:00 AM)
Low47 °F (Jun 24, 6:00 AM)24% (Jul 4, 5:00 PM)29.75 "Hg (Jun 22, 8:00 PM)
Average71 °F63%30.09 "Hg
* Reported Jun 21 2:00 AM — Jul 6 2:00 AM, Emmendingen, Weather by CustomWeather, © 2015

Note: Actual official high and low records may vary slightly from our data, if they occured in-between our weather recording intervals... More about our weather records

Advertising

Emmendingen weather history for previous 24 hours

 ConditionsComfort  
Time TempWeatherWind HumidityBarometerVisibility
2:00 AM
Mon, Jul 6
75 °FPassing clouds.3 mph74%30.10 "Hg15 mi
1:00 AM79 °FPassing clouds.6 mph61%30.07 "Hg17 mi
12:00 AM82 °FPassing clouds.3 mph52%30.03 "Hg16 mi
11:00 PM
Sun, Jul 5
82 °FPassing clouds.2 mph49%29.99 "Hg16 mi
10:00 PM88 °FPassing clouds.7 mph44%29.94 "Hg16 mi
9:00 PM91 °FScattered clouds.7 mph36%29.88 "Hg34 mi
8:00 PM94 °FScattered clouds.3 mph35%29.85 "Hg34 mi
7:00 PM97 °FPassing clouds.3 mph26%29.84 "Hg34 mi
6:00 PM99 °FPassing clouds.5 mph24%29.85 "Hg31 mi
5:00 PM100 °FPassing clouds.3 mph26%29.88 "Hg25 mi
4:00 PM98 °FPassing clouds.5 mph32%29.90 "Hg25 mi
3:00 PM97 °FPassing clouds.6 mph32%29.92 "Hg22 mi
2:00 PM95 °FPassing clouds.6 mph33%29.95 "Hg19 mi
1:00 PM93 °FPassing clouds.3 mph37%29.97 "Hg22 mi
12:00 PM90 °FPassing clouds.2 mph41%29.97 "Hg19 mi
11:00 AM88 °FPassing clouds.2 mph47%29.99 "Hg18 mi
10:00 AM84 °FPassing clouds.2 mph53%30.01 "Hg11 mi
9:00 AM81 °FPassing clouds.1 mph54%30.03 "Hg11 mi
8:00 AM77 °FPassing clouds.1 mph65%30.04 "Hg11 mi
7:00 AM71 °FPassing clouds.1 mph82%30.05 "Hg11 mi
5:00 AM70 °FOvercast.1 mph85%30.04 "Hg11 mi
4:00 AM71 °FClear.2 mph82%30.04 "Hg11 mi
3:00 AM70 °FClear.1 mph81%30.05 "Hg11 mi
Weather by CustomWeather, © 2015

See weather overviewHow to use our weather pages